Hourly Weather Roundup
Issued by NWS Central Illinois

Home | Current Version | Previous Version | Text Only | Print | Product List | Glossary On
Versions: 1 2 3 4 5 6 7 8 9 10 11 12 13 14 15 16 17 18 19 20 21 22 23 24 25 26 27 28 29 30 31 32 33 34 35 36 37 38 39 40 41 42 43 44 45 46 47 48 49 50
000
NZUS43 KILX 191010
HWRILX

AREA WEATHER ROUNDUP
NATIONAL WEATHER SERVICE, LINCOLN IL
400 AM CST FRI DEC 19 2014


CITY           SKY/WX    TMP DP  RH WIND       PRES   REMARKS
BLOOMINGTON    CLEAR     19  17  92 CALM      30.29S
CHAMPAIGN      CLEAR     18  14  84 N3        30.28S
DECATUR        PTCLDY    22  19  89 CALM      30.29S
FLORA          CLEAR     27  25  90 N3        30.30S FOG
GALESBURG      CLOUDY    22  20  91 NE3       30.28F
JACKSONVILLE   CLOUDY    31  25  80 CALM      30.29S
LACON          CLEAR     14  11  89 CALM      30.29F
LAWRENCEVILLE  CLEAR     26  23  88 N5        30.30S WCI  20
LITCHFIELD     CLOUDY    29  26  86 N3        30.29R
$$


CITY           SKY/WX    TMP DP  RH WIND       PRES   REMARKS
LINCOLN        CLEAR     21  19  92 CALM      30.32R
MACOMB         CLOUDY    28  24  86 CALM      30.30F
MATTOON        CLEAR     23  19  85 N6        30.28R WCI  16
MT CARMEL AP   CLOUDY    32  27  80 NE3       30.29S
OLNEY-NOBLE AP CLEAR     27  25  93 CALM      30.30S
PARIS          CLEAR     23  21  93 CALM      30.29S
PEORIA         CLEAR     20  15  81 CALM      30.29F
PONTIAC        CLEAR     19  17  90 NW3       30.30S
RANTOUL        CLEAR     22  19  87 N7        30.27F WCI  13
ROBINSON       CLOUDY    28  25  87 NW3       30.31R
SPRINGFIELD    CLOUDY    29  23  78 N3        30.30R
TAYLORVILLE    CLOUDY    28  25  86 NE6       30.29S WCI  22
$$

...REGIONAL REPORTS...


CITY           SKY/WX    TMP DP  RH WIND       PRES   REMARKS
CHICAGO O`HARE CLOUDY    28  23  81 NW6       30.26S WCI  22
KANKAKEE       CLOUDY    25  23  89 W7        30.29S WCI  18
MOLINE         CLEAR     16  12  84 CALM      30.30F
MOUNT VERNON   PTCLDY    25  19  80 CALM      30.29S
PITTSFIELD     CLOUDY    30  28  91 CALM      30.30R
QUINCY         CLOUDY    28  24  85 CALM      30.28S
ROCKFORD       CLOUDY    27  20  75 NW8       30.30S WCI  19
$$


CITY           SKY/WX    TMP DP  RH WIND       PRES   REMARKS
BURLINGTON     CLOUDY    28  23  81 NE6       30.28F WCI  22
CEDAR RAPIDS   CLOUDY    24  20  84 CALM      30.28F
DES MOINES     FLURRIES  29  24  82 SE3       30.26F
KIRKSVILLE     CLOUDY    29  26  89 CALM      30.27S
OTTUMWA        CLOUDY    27  22  81 NE3       30.27F
ST LOUIS       CLOUDY    33  26  75 CALM      30.29S
$$


CITY           SKY/WX    TMP DP  RH WIND       PRES   REMARKS
TERRE HAUTE    PTCLDY    26  21  81 NW3       30.29R
EVANSVILLE     CLOUDY    32  25  75 N6        30.29S WCI  26
INDIANAPOLIS   PTCLDY    20  17  88 W5        30.25F WCI  13
LAFAYETTE      CLOUDY    19  17  92 W3        30.28S
MADISON        CLOUDY    26  20  77 CALM      30.27S
MILWAUKEE      CLOUDY    28  19  69 NW7       30.27S WCI  21
$$





USA.gov is the U.S. government's official web portal to all federal, state and local government web resources and services.